Probability
3 3 3 3 3 3 3 0 3 3 3 0 0 0 0 0 0 0 0 6 3 3 3 0 0 3 3 3 0 3 0 3 3 3 3 3 0 0 0 0 0 0 0
3 3 3 3 3 3 3 0 3 3 3 3 0 0 0 0 0 0 0 0 0 3 0 3 3 3 6 6 3 3 3 3 0 3 0 0 0 0 0 0 0 0 0
3 3 3 3 3 3 3 0 6 3 3 0 0 0 0 0 0 0 0 0 3 3 3 3 3 3 3 6 3 6 10 3 3 0 0 3 0 0 0 0 0 0 0
3 3 3 3 3 3 3 3 3 0 0 0 0 0 0 0 0 0 0 0 3 3 3 3 3 3 3 3 6 3 3 10 6 0 3 3 3 3 0 0 0 0 0
3 3 6 6 6 3 3 3 3 3 0 0 0 0 0 0 0 0 0 0 3 6 6 6 6 3 6 3 3 3 3 6 0 6 6 0 0 0 0 0 0 0 0
3 6 6 6 6 6 3 3 3 3 3 0 0 0 0 0 0 0 0 0 0 6 6 6 6 6 6 6 6 6 6 3 3 3 6 3 0 0 0 0 0 0 0
6 6 3 6 3 3 3 3 3 3 3 0 0 0 0 0 0 0 0 0 0 3 3 3 3 3 3 3 6 6 6 3 3 3 3 0 0 0 0 0 0 0 0
6 6 6 3 3 3 3 3 3 3 3 0 0 0 0 0 0 0 0 0 3 3 3 3 3 3 0 0 3 3 3 0 0 0 3 6 0 0 0 0 0 0 0
6 6 10 3 3 3 3 3 3 3 3 0 0 0 0 0 0 0 0 0 0 0 3 3 3 0 0 3 3 0 0 0 0 0 0 0 3 3 0 0 3 0 0
6 6 10 6 3 3 3 3 3 3 3 3 0 0 0 0 0 0 0 0 0 0 0 0 0 0 3 3 6 3 0 0 0 3 0 0 0 0 0 0 0 0 0
3 6 10 10 6 10 6 3 3 3 3 3 0 0 0 0 0 0 0 0 0 0 0 0 0 0 0 0 6 3 3 0 0 0 0 0 0 0 0 0 0 0 3
0 0 6 6 6 10 10 3 3 3 3 3 0 0 0 0 0 0 0 0 0 0 0 0 0 0 3 3 3 3 3 3 0 0 0 0 0 0 0 0 0 0 0
0 0 3 3 3 6 6 10 3 0 0 0 0 0 0 0 0 0 0 0 0 0 0 0 0 3 3 3 3 3 3 3 3 3 0 0 0 0 0 0 0 0 0
0 0 3 3 3 6 6 6 3 0 0 0 0 0 0 0 0 0 0 0 0 0 0 0 0 0 3 3 3 3 3 0 3 0 0 0 0 0 0 0 0 0 0
0 0 3 3 3 6 6 6 3 3 0 3 0 0 0 0 0 0 0 0 0 0 0 0 0 0 0 0 3 3 3 3 3 3 0 0 0 0 0 0 0 0 0
0 0 3 3 3 3 6 6 3 3 3 3 3 3 0 0 0 0 0 0 0 0 0 0 0 0 0 0 0 0 3 3 3 3 0 0 0 0 0 0 0 0 0
0 0 3 3 3 3 3 6 3 6 6 6 6 6 0 0 0 0 0 0 0 0 0 0 0 0 0 0 0 0 3 3 3 3 0 0 0 0 0 0 0 0 0
0 3 3 3 3 3 6 3 3 3 3 3 3 3 3 3 3 3 3 3 0 0 0 0 0 0 0 0 0 0 0 0 0 3 0 0 0 0 0 0 0 0 0
3 3 3 3 3 3 3 3 3 3 3 3 3 3 3 3 3 3 3 3 0 0 0 0 0 0 0 0 0 0 0 0 0 0 0 0 0 0 0 0 0 0 0
0 3 3 3 3 3 3 3 3 3 3 3 3 3 3 3 3 3 3 3 3 0 0 0 0 0 0 0 0 0 0 0 0 3 0 0 0 0 0 0 0 0 0
0 3 3 3 3 3 3 3 0 3 3 3 3 3 3 3 3 3 3 3 3 3 0 0 0 0 0 0 0 0 0 3 0 0 0 0 0 0 0 0 0 0 0
0 3 3 3 3 3 3 3 0 3 3 3 3 3 3 3 3 3 3 3 3 3 0 0 0 0 0 0 0 0 0 0 0 0 0 0 0 0 0 0 0 0 0
0 3 3 3 3 3 3 3 3 3 3 3 3 3 3 3 3 3 3 3 3 3 0 0 0 0 0 0 0 0 0 0 0 0 0 0 0 0 0 0 0 0 0
0 3 3 3 3 3 3 3 3 3 3 3 3 3 3 3 3 3 3 3 3 3 3 0 0 0 0 0 0 0 0 0 0 0 0 0 0 0 0 0 0 0 0
0 3 3 3 3 3 3 3 3 3 3 3 3 3 3 3 3 3 3 3 3 3 3 3 0 0 0 0 0 0 0 0 0 0 0 0 0 0 0 0 0 0 0
0 3 3 3 3 3 3 3 3 3 3 3 3 3 3 3 3 3 3 0 0 0 0 0 0 0 0 0 0 0 0 0 0 0 0 0 0 0 0 0 0 0 0
Height
5863 5861 5860 5859 5858 5858 5857 5856 5856 5855 5854 5853 5853 5852 5851 5850 5849 5848 5847 5847 5846 5846 5845 5845 5845 5844 5844 5844 5844 5844 5843 5843 5843 5842 5842 5842 5842 5842 5843 5843 5844 5844 5844
5861 5860 5859 5858 5857 5857 5856 5855 5855 5854 5853 5852 5851 5851 5849 5848 5848 5847 5847 5846 5845 5845 5845 5844 5844 5843 5843 5843 5842 5842 5842 5841 5841 5841 5841 5840 5841 5840 5841 5841 5842 5842 5842
5860 5859 5858 5857 5856 5856 5855 5854 5854 5853 5852 5851 5851 5850 5849 5848 5847 5847 5846 5845 5845 5844 5844 5843 5843 5843 5842 5842 5841 5841 5841 5840 5840 5840 5839 5839 5839 5838 5839 5839 5840 5840 5839
5859 5858 5857 5856 5856 5855 5854 5854 5853 5852 5851 5851 5850 5849 5848 5848 5847 5846 5845 5845 5844 5844 5843 5842 5842 5842 5841 5841 5840 5840 5840 5839 5839 5838 5838 5837 5837 5837 5837 5837 5837 5837 5837
5858 5857 5856 5855 5854 5854 5853 5853 5852 5851 5851 5850 5849 5848 5848 5847 5846 5845 5845 5844 5844 5843 5842 5842 5841 5841 5840 5840 5839 5839 5838 5838 5838 5837 5836 5835 5835 5835 5835 5835 5835 5835 5834
5856 5856 5855 5854 5853 5853 5852 5852 5851 5850 5850 5849 5848 5847 5847 5846 5846 5845 5844 5843 5843 5842 5842 5841 5840 5840 5839 5839 5838 5838 5837 5837 5836 5835 5835 5834 5833 5833 5833 5833 5833 5832 5832
5855 5854 5854 5853 5852 5852 5851 5850 5850 5849 5849 5848 5847 5846 5846 5845 5845 5844 5843 5843 5842 5841 5841 5840 5839 5839 5838 5838 5837 5836 5836 5835 5834 5834 5833 5832 5832 5832 5831 5831 5830 5830 5829
5853 5853 5852 5852 5851 5850 5850 5849 5849 5848 5847 5846 5845 5845 5844 5844 5844 5843 5842 5842 5841 5840 5840 5839 5838 5838 5837 5836 5836 5835 5834 5833 5833 5832 5831 5831 5831 5830 5830 5829 5828 5827 5827
5851 5851 5850 5850 5849 5849 5848 5848 5847 5846 5846 5845 5844 5843 5843 5842 5842 5842 5841 5841 5840 5839 5838 5838 5837 5837 5836 5835 5834 5833 5832 5832 5831 5830 5830 5830 5829 5829 5828 5827 5826 5826 5825
5849 5848 5848 5848 5847 5847 5846 5846 5845 5845 5844 5843 5842 5841 5841 5841 5841 5840 5840 5839 5838 5838 5837 5837 5836 5835 5835 5834 5833 5832 5831 5830 5829 5829 5829 5828 5828 5827 5826 5825 5825 5824 5823
5846 5846 5845 5845 5845 5844 5844 5844 5843 5842 5842 5841 5840 5840 5839 5839 5839 5839 5838 5838 5837 5836 5836 5835 5834 5834 5833 5832 5831 5830 5829 5828 5828 5827 5827 5826 5826 5825 5824 5823 5822 5821 5821
5843 5843 5843 5842 5842 5842 5842 5841 5841 5840 5840 5839 5838 5838 5837 5837 5837 5837 5836 5836 5835 5835 5834 5833 5833 5832 5831 5830 5829 5828 5827 5826 5826 5825 5825 5824 5824 5823 5822 5821 5820 5819 5818
5840 5840 5839 5839 5839 5839 5839 5839 5838 5838 5837 5836 5836 5836 5835 5835 5835 5834 5834 5834 5833 5833 5832 5831 5830 5830 5829 5828 5827 5826 5825 5824 5823 5823 5822 5822 5821 5820 5819 5818 5817 5816 5815
5836 5836 5836 5836 5836 5836 5836 5835 5835 5835 5834 5834 5833 5833 5833 5832 5832 5832 5832 5831 5831 5830 5830 5829 5828 5827 5826 5825 5825 5824 5823 5822 5821 5820 5819 5819 5818 5817 5817 5815 5814 5813 5812
5832 5832 5832 5832 5832 5832 5832 5832 5832 5832 5831 5831 5831 5830 5830 5829 5829 5829 5829 5828 5828 5827 5827 5826 5825 5824 5824 5823 5822 5821 5820 5819 5818 5818 5817 5816 5815 5815 5814 5813 5811 5810 5809
5828 5828 5828 5828 5828 5828 5828 5828 5828 5828 5828 5827 5827 5827 5827 5826 5826 5826 5826 5825 5825 5824 5823 5823 5822 5821 5821 5820 5819 5818 5817 5816 5815 5815 5814 5813 5812 5811 5810 5809 5808 5807 5806
5822 5823 5823 5823 5823 5823 5823 5824 5824 5823 5823 5823 5823 5823 5823 5823 5823 5822 5822 5821 5821 5820 5820 5819 5818 5818 5817 5817 5816 5815 5814 5813 5812 5811 5810 5809 5808 5807 5807 5806 5804 5803 5801
5817 5817 5817 5817 5818 5818 5818 5818 5819 5819 5819 5819 5819 5819 5819 5818 5818 5818 5817 5817 5817 5816 5816 5815 5815 5814 5814 5813 5812 5811 5810 5809 5808 5807 5806 5805 5804 5803 5802 5801 5800 5799 5797
5811 5811 5811 5811 5812 5812 5812 5813 5813 5813 5813 5813 5814 5814 5814 5814 5813 5813 5813 5813 5813 5812 5812 5811 5811 5810 5810 5809 5808 5807 5806 5805 5804 5803 5802 5801 5800 5799 5798 5797 5795 5794 5792
5804 5804 5805 5805 5806 5806 5806 5807 5807 5807 5808 5808 5808 5808 5808 5808 5808 5808 5808 5808 5808 5807 5807 5806 5806 5805 5805 5804 5803 5802 5801 5800 5799 5798 5797 5796 5795 5794 5793 5791 5790 5788 5786
5797 5797 5798 5799 5799 5799 5800 5800 5800 5801 5801 5801 5801 5802 5802 5802 5802 5802 5803 5803 5803 5802 5802 5801 5801 5800 5799 5799 5798 5797 5796 5795 5794 5793 5792 5791 5790 5788 5787 5786 5784 5782 5780
5790 5790 5791 5791 5792 5792 5793 5793 5793 5794 5794 5795 5795 5795 5795 5796 5796 5796 5796 5797 5797 5796 5796 5795 5795 5794 5793 5793 5792 5791 5791 5790 5789 5788 5787 5785 5784 5783 5781 5780 5778 5775 5773
5783 5783 5784 5784 5784 5785 5785 5785 5786 5786 5787 5787 5788 5788 5788 5788 5789 5789 5789 5790 5790 5790 5790 5789 5789 5788 5787 5786 5786 5785 5784 5783 5783 5782 5780 5779 5778 5776 5774 5773 5771 5768 5766
5776 5776 5776 5776 5777 5777 5777 5778 5778 5778 5779 5780 5780 5780 5781 5781 5781 5782 5782 5782 5782 5782 5782 5782 5782 5781 5780 5780 5779 5778 5778 5777 5776 5775 5773 5772 5770 5769 5767 5765 5763 5760 5758
5768 5768 5769 5769 5769 5769 5769 5769 5770 5770 5771 5771 5772 5772 5772 5773 5773 5773 5774 5774 5775 5775 5775 5774 5774 5774 5773 5772 5772 5771 5770 5769 5768 5767 5765 5764 5762 5761 5759 5756 5754 5752 5749
5760 5760 5760 5761 5761 5761 5761 5761 5762 5762 5762 5763 5763 5763 5763 5764 5764 5764 5765 5765 5766 5766 5766 5766 5766 5766 5765 5764 5764 5763 5762 5761 5760 5759 5757 5756 5754 5752 5750 5747 5745 5742 5740
Wind_Speed
7 7 7 6 6 5 5 5 5 5 6 6 6 6 5 5 5 4 4 4 4 3 3 3 3 3 5 5 6 6 6 6 7 7 8 8 9 10 10 11 11 11 11
7 7 6 6 6 5 5 5 5 5 5 5 5 5 4 3 4 4 4 3 3 3 3 3 3 3 3 4 5 5 6 6 6 6 7 7 7 9 9 9 10 11 11
6 6 5 5 5 5 4 4 5 5 5 5 4 4 3 4 4 3 3 3 2 2 3 3 3 4 4 4 5 5 5 5 5 5 5 6 6 8 9 10 10 11 11
6 6 5 5 5 4 4 5 5 5 4 4 4 4 4 4 4 3 3 3 3 3 3 3 3 3 4 5 5 5 5 5 6 6 6 7 6 7 8 9 9 9 10
6 6 5 5 4 5 5 4 4 4 5 5 5 5 4 4 4 4 3 3 3 4 4 4 4 3 4 4 4 5 5 5 6 6 7 7 7 7 7 8 8 9 9
6 6 6 5 5 5 5 4 4 5 5 5 5 5 4 4 5 4 4 3 3 4 4 4 4 4 4 5 5 5 5 6 6 6 6 6 5 6 6 7 8 9 9
6 6 6 6 6 6 5 5 5 6 6 6 5 6 6 5 5 4 4 4 4 4 4 4 4 5 5 6 6 6 6 6 6 6 6 5 5 5 6 7 8 8 8
7 6 6 6 6 6 5 5 5 6 6 6 6 6 6 6 5 4 4 5 5 4 5 5 5 5 5 5 6 6 6 6 6 6 5 5 6 6 7 7 8 9 9
8 7 7 7 7 7 6 6 6 6 6 6 6 6 6 6 6 5 5 6 6 5 5 5 5 5 5 6 6 6 7 7 6 6 6 6 6 7 7 8 8 9 9
8 8 8 8 8 8 8 8 7 6 6 6 6 6 6 6 6 5 6 6 6 6 5 5 5 6 6 7 7 7 7 7 7 7 7 7 7 7 7 7 8 9 9
10 9 9 9 9 9 8 8 8 7 7 6 6 6 6 6 6 6 6 6 6 6 6 6 6 6 7 7 8 7 7 7 7 7 7 7 7 7 8 8 9 9 10
10 10 10 10 9 9 9 9 9 9 8 8 7 7 7 7 7 7 7 7 7 7 8 7 7 7 8 8 8 8 7 7 7 8 8 8 8 9 9 9 10 10 11
12 11 11 11 11 10 10 10 10 10 9 9 8 8 7 8 8 8 8 8 8 8 8 8 8 8 8 8 8 8 8 8 8 9 9 9 9 9 10 10 10 11 11
14 13 13 13 12 12 11 11 11 10 10 9 9 9 8 8 8 9 9 9 9 9 9 9 9 9 9 9 9 9 9 9 9 9 9 9 9 10 10 10 10 11 11
15 14 14 14 14 13 13 12 11 11 11 10 10 10 10 10 10 10 10 10 10 10 10 9 10 10 10 10 10 9 10 9 9 9 10 10 10 11 11 11 11 12 12
16 16 16 15 16 15 14 14 13 13 12 12 11 11 11 11 11 11 11 11 12 11 11 11 10 10 10 10 10 10 10 10 11 11 11 11 11 12 12 12 13 13 13
18 18 18 17 16 16 16 16 15 15 15 14 13 13 13 13 13 13 13 13 13 13 13 13 12 12 11 11 12 12 12 12 12 13 13 13 13 13 13 13 14 15 15
19 19 18 17 18 18 18 18 17 17 16 16 15 15 14 15 15 15 14 14 14 13 13 13 14 13 13 13 13 13 13 13 14 14 14 15 14 14 15 15 16 17 17
19 19 18 18 19 19 19 19 19 18 18 18 18 17 17 17 16 15 15 15 15 14 14 14 14 15 15 15 15 15 15 15 15 15 15 15 16 16 16 17 18 19 19
21 20 19 19 20 20 20 20 20 20 20 20 20 20 19 18 17 17 17 17 16 16 16 16 16 16 16 17 17 17 16 16 16 16 16 17 17 17 18 19 20 21 22
21 21 20 20 21 21 21 21 22 21 21 21 21 21 21 20 20 20 19 19 19 18 18 18 17 18 18 18 18 18 18 18 18 18 18 18 19 19 20 21 22 23 23
21 21 21 22 22 22 22 22 23 23 22 22 22 22 22 22 22 21 21 21 20 20 19 19 19 19 19 19 19 19 19 18 19 19 19 20 20 21 22 22 23 24 24
22 22 22 23 23 24 24 24 24 24 23 23 23 23 23 24 24 23 22 22 22 22 21 21 21 20 20 20 20 20 20 19 20 21 22 22 23 23 24 25 25 26 26
23 23 23 23 24 25 25 25 25 25 25 25 25 25 25 25 26 25 24 24 24 23 23 22 22 22 22 22 22 22 22 22 23 23 24 24 25 26 26 27 28 28 29
24 24 23 24 25 26 26 26 26 26 26 26 27 27 27 27 27 28 27 27 26 26 25 25 24 24 23 23 23 24 24 25 26 26 26 27 27 28 29 30 30 30 30
26 25 25 25 25 26 26 26 26 26 27 28 28 29 29 28 28 28 28 28 28 28 27 27 27 27 26 26 26 26 26 27 27 28 28 29 29 30 31 31 31 31 32
Wind_Direction
310 311 308 307 303 299 299 303 304 301 303 304 304 306 301 295 294 299 301 291 280 279 282 276 271 269 266 267 268 260 261 264 263 260 259 254 253 251 248 246 250 251 253
311 312 306 302 302 299 297 300 305 306 306 307 310 314 315 307 304 300 303 291 276 277 276 273 268 269 272 271 266 263 268 275 274 266 261 256 252 253 252 253 254 253 251
313 314 301 294 299 295 297 301 304 307 305 312 314 321 322 325 318 309 303 299 287 282 283 276 270 269 275 281 276 276 283 283 278 279 278 274 263 256 255 258 257 256 254
311 314 305 293 296 295 294 297 307 311 306 313 317 312 322 331 330 316 305 293 284 283 287 286 283 277 277 276 273 279 288 285 282 281 282 281 269 263 259 261 260 258 257
308 310 308 299 297 299 294 293 300 310 315 312 309 311 310 315 317 309 304 303 291 288 288 284 288 281 283 285 280 280 286 287 284 284 285 277 268 263 259 262 264 264 263
308 305 304 306 303 298 294 288 289 299 308 310 304 301 301 305 305 304 305 308 303 296 296 292 291 291 286 287 291 283 291 288 287 285 288 280 270 266 270 269 267 270 266
306 305 304 306 304 298 294 290 291 297 301 301 298 289 286 290 293 293 303 310 311 301 291 296 295 293 289 287 289 287 293 291 284 282 284 279 273 275 278 278 276 276 272
295 296 299 302 300 296 294 296 302 301 301 299 299 290 281 282 279 284 295 301 305 304 295 298 298 298 296 293 291 293 293 289 283 276 279 274 277 285 285 284 281 280 279
286 286 289 292 295 292 291 292 297 302 300 297 295 290 281 277 271 278 293 298 296 294 292 296 297 302 302 303 301 298 295 290 281 271 271 272 280 283 283 284 285 285 285
278 280 285 288 290 291 292 292 293 300 303 301 296 289 284 280 273 275 285 293 289 290 287 288 289 293 294 300 302 301 299 294 285 272 268 269 274 279 281 286 288 288 289
273 276 281 285 284 284 288 288 289 296 301 296 293 286 283 281 278 280 286 290 288 287 288 289 292 292 293 294 296 294 295 291 284 275 275 275 280 284 289 289 289 289 290
275 274 273 278 278 279 282 282 284 288 292 291 287 284 281 279 277 280 284 288 291 288 286 289 293 296 295 292 294 292 291 290 287 283 282 282 281 284 288 289 289 289 287
272 273 273 273 274 275 279 282 282 283 286 285 280 280 279 277 276 278 281 288 292 290 287 287 289 292 293 291 293 294 294 290 287 287 284 283 283 285 285 286 288 290 288
269 270 272 274 272 272 275 277 279 279 279 279 275 276 277 278 279 277 279 283 287 289 288 288 287 288 289 289 291 291 296 292 288 287 285 282 283 286 286 286 287 289 288
269 269 269 271 269 270 269 270 273 272 270 271 272 273 274 275 278 276 277 279 282 283 284 284 285 285 283 284 286 290 291 290 288 286 284 282 281 284 285 287 288 290 292
268 268 267 266 267 266 266 266 268 266 265 267 268 269 272 273 274 275 279 280 280 279 280 281 281 282 284 283 283 285 287 287 286 285 285 283 282 283 284 286 288 290 292
267 267 266 265 266 264 265 265 266 265 264 265 266 269 270 270 273 274 275 278 277 277 278 277 274 275 279 283 283 282 282 284 284 284 285 286 283 282 284 286 289 291 291
264 264 264 264 265 266 264 265 267 267 266 266 265 266 268 270 274 275 273 273 273 275 277 276 274 273 274 279 282 281 281 282 283 283 284 284 282 283 285 286 288 289 289
265 264 264 264 265 266 265 264 266 267 267 268 266 265 268 270 272 272 270 270 271 272 273 274 275 274 275 276 279 283 282 281 281 283 284 284 282 282 285 286 287 288 288
265 264 264 264 265 266 266 265 265 266 267 267 266 265 266 269 270 269 267 268 269 271 272 273 274 274 274 275 277 280 282 281 282 283 285 286 286 283 284 286 288 289 289
265 263 264 264 265 265 266 266 266 267 265 265 265 264 266 267 267 267 267 268 268 270 272 273 275 275 275 276 276 278 279 280 281 282 283 284 286 284 285 286 289 290 291
264 264 264 264 266 267 267 266 266 265 265 266 265 264 264 264 264 265 266 267 268 268 270 272 274 275 276 276 277 277 278 278 280 282 282 282 284 284 286 287 289 291 292
264 265 265 264 266 267 266 265 265 265 266 267 265 264 265 264 262 263 265 266 267 268 268 269 272 275 275 275 276 277 277 278 280 281 283 283 284 285 287 288 289 291 292
266 266 265 265 266 266 267 265 264 264 264 265 266 265 265 265 264 264 265 265 266 267 268 268 270 272 274 276 276 276 277 279 280 281 284 285 286 286 287 288 289 290 292
266 266 266 266 265 266 267 267 265 264 264 265 267 267 266 266 266 265 264 264 264 266 268 268 270 271 273 275 276 276 277 279 280 281 282 284 285 286 286 287 288 289 290
265 266 266 266 266 267 266 265 264 264 264 265 266 266 266 266 266 267 266 265 264 265 267 268 269 270 270 272 274 276 277 279 281 283 284 285 286 286 287 288 288 288 289